Regional Weather Roundup
Issued by NWS

Home | Current Version | Previous Version | Text Only | Print | Product List | Glossary On
Versions: 1 2 3 4 5 6 7 8 9 10 11 12 13 14 15 16 17 18 19 20 21 22 23 24 25 26 27 28
000
ASUS45 KREV 280710
RWRNV
NEVADA REGIONAL WEATHER ROUNDUP
NATIONAL WEATHER SERVICE RENO NV
1200 AM PDT SUN MAY 28 2017

NOTE: "FAIR" INDICATES FEW OR NO CLOUDS BELOW 12,000 FEET WITH NO
SIGNIFICANT WEATHER AND/OR OBSTRUCTIONS TO VISIBILITY.

NVZ001-003-004-280800-
WESTERN NEVADA

CITY           SKY/WX    TMP DP  RH WIND       PRES   REMARKS
RENO           CLEAR     62  25  24 W3        30.17R
CARSON CITY    FAIR      54  23  30 CALM      30.19S
MINDEN         FAIR      41  32  70 E7        30.20R
FALLON         CLEAR     57  32  38 CALM      30.12R
LOVELOCK       CLEAR     58  25  28 NE3       30.13R
HAWTHORNE      CLEAR     64  28  25 NW5       30.13S
$$

NVZ002-CAZ072-073-280800-
NORTHERN AND CENTRAL SIERRA

CITY           SKY/WX    TMP DP  RH WIND       PRES   REMARKS
S. LAKE TAHOE  CLEAR     44  31  60 S6        30.26S
TRUCKEE        CLEAR     41  34  75 CALM      30.26S
SQUAW VLY 8000   N/A     39  27  60 S1          N/A
SUSANVILLE     CLEAR     52  32  46 W7        30.16S
MAMMOTH LAKES  FAIR      46  26  45 W9        30.29S
BRIDGEPORT     FAIR      42  24  49 CALM      30.28R
$$

NVZ030-031-036-280800-
NORTHERN NEVADA

CITY           SKY/WX    TMP DP  RH WIND       PRES   REMARKS
ELKO           CLEAR     54  32  43 E3        30.23S
WINNEMUCCA     CLEAR     54  32  43 E9        30.18R
WENDOVER       CLEAR     57  31  37 W6        30.23F
$$

NVZ035-037-280800-
CENTRAL NEVADA

CITY           SKY/WX    TMP DP  RH WIND       PRES   REMARKS
ELY            CLEAR     37  20  50 SE8       30.30R
EUREKA           N/A     41  27  57 CALM      30.26R
$$

NVZ013-014-280800-
SOUTH CENTRAL NEVADA

CITY           SKY/WX    TMP DP  RH WIND       PRES   REMARKS
TONOPAH        CLEAR     53  13  20 N9        30.19R
$$

NVZ017-020-022-280800-
SOUTHERN NEVADA

CITY           SKY/WX    TMP DP  RH WIND       PRES   REMARKS
LAS VEGAS      PTCLDY    82  22  11 NE17      29.96R
N. LAS VEGAS   CLEAR     80  29  15 NE6       29.97R
NELLIS AFB     CLEAR     82  26  13 N18       29.95R
HENDERSON      CLEAR     74  30  19 CALM      30.01R
MERCURY        CLEAR     65  21  18 E6        30.02S
$$




USA.gov is the U.S. government's official web portal to all federal, state and local government web resources and services.